Regional Weather Roundup
Issued by NWS

Home | Current Version | Previous Version | Graphics & Text | Print | Product List | Glossary On
Versions: 1 2 3 4 5 6 7 8 9 10 11 12 13 14 15 16 17 18 19 20 21 22 23 24 25 26 27 28 29 30 31 32 33 34 35 36 37 38 39 40 41 42 43 44 45 46 47 48 49 50
000
ASUS43 KDTX 211410
RWRMI
MICHIGAN HOURLY REGIONAL WEATHER ROUNDUP
NATIONAL WEATHER SERVICE DETROIT/PONTIAC MI
ISSUED BY NATIONAL WEATHER SERVICE GRAND RAPIDS MI
900 AM EST SAT JAN 21 2017

NOTE: "FAIR" INDICATES FEW OR NO CLOUDS BELOW 12,000 FEET WITH NO
SIGNIFICANT WEATHER AND/OR OBSTRUCTION TO VISIBILITY.

MIZ047>049-052>055-059>063-066>070-074>076-081>083-211500-
SOUTHEAST LOWER MICHIGAN

CITY           SKY/WX    TMP DP  RH WIND       PRES   REMARKS
ADRIAN         FOG       37  37 100 CALM      29.67F VSB 1/4
ALMA           FOG       37  37 100 CALM      29.64F VSB<1/4
ANN ARBOR      FOG       40  40 100 CALM      29.67F VSB<1/4
BAD AXE        CLOUDY    37  37 100 SE3       29.70F FOG
DETROIT CITY   FOG       38  38 100 CALM      29.71R VSB<1/4
DETROIT        FOG       41  41 100 E3        29.69F VSB 1/8
FLINT          FOG       43  42  97 SE8       29.66F VSB 1/2
GROSSE ILE     FOG       39  39  99 SE3       29.68S VSB 1/4
HILLSDALE      FOG       43  43 100 S8        29.64F VSB<1/4
HOWELL         FOG       43  42  96 SE8       29.66S VSB<1/4

CITY           SKY/WX    TMP DP  RH WIND       PRES   REMARKS
JACKSON        FOG       46  45  96 S8        29.64F VSB 1/2
LANSING        CLEAR     45  43  93 SE8       29.64R FOG
MASON          MOCLDY    44  44 100 S7        29.64S FOG
MONROE         FOG       38  38 100 CALM      29.67F VSB 1
MT. CLEMENS    FOG       39  39 100 SE3       29.68S VSB 1/16
PONTIAC        FOG       39  38  96 CALM      29.67S VSB 1/8
PORT HOPE        N/A     37  36  96 SE8       29.68F WCI  31
PORT HURON     FOG       39  39 100 SE3       29.71S VSB 1/2
TRI CITIES     FOG       37  37 100 E6        29.66S VSB 3/4 WCI  32
YPSILANTI      FOG       42  42 100 CALM      29.68F VSB<1/4
$$
MIZ043>046-050>051-056>058-064>065-071>073-077>080-211500-
SOUTHWEST LOWER MICHIGAN

CITY           SKY/WX    TMP DP  RH WIND       PRES   REMARKS
BENTON HARBOR  CLOUDY    51  48  89 SE8       29.58F FOG
BIG RAPIDS     FOG       35  34  97 SE6       29.61S VSB 1/4 WCI  30
COLDWATER        N/A     46  46 100 SE9       29.63F FOG
HOLLAND        MOCLDY    47  46  97 SE8       29.59S
GRAND RAPIDS   FOG       40  39  97 E8        29.61S VSB 1/8 WCI  34
KALAMAZOO      PTCLDY    47  44  90 S8        29.62S FOG
MARSHALL       CLEAR     46  46  98 SE6       29.62S FOG
MOUNT PLEASANT FOG       35  35  99 E5        29.63F VSB 1/4 WCI  31
MUSKEGON       CLOUDY    44  43  96 SE9       29.59R FOG
STURGIS        CLOUDY    47  47  99 S7        29.62F FOG
$$
MIZ016>042-211500-
NORTHERN LOWER MICHIGAN

CITY           SKY/WX    TMP DP  RH WIND       PRES   REMARKS
ALPENA         CLOUDY    32  31  96 SE6       29.69F WCI  26
BEAVER ISLAND  CLOUDY    34  34 100 E3        29.64F FOG
BELLAIRE       CLOUDY    33  33  98 CALM      29.63F FOG
CADILLAC       FOG       33  33  96 E6        29.60S VSB 3/4 WCI  28
CHARLEVOIX     DRIZZLE   34  34 100 E7        29.66F WCI  28
GAYLORD        CLOUDY    35  31  85 SE6       29.63F FOG     WCI  30
HOUGHTON LAKE  CLOUDY    34  33  96 SE6       29.63F FOG     WCI  29
MANISTEE       LGT RAIN  37  36  96 E9        29.58F FOG     WCI  30
OSCODA         FOG       35  34  97 CALM      29.69S VSB<1/4
PELLSTON       CLOUDY    33  31  92 E3        29.66F FOG
TRAVERSE CITY  CLOUDY    37  35  92 CALM      29.62S
LUDINGTON      CLOUDY    38  38 100 SE8       29.57F FOG     WCI  32
$$
MIZ007>008-015-211500-
EASTERN UPPER MICHIGAN

CITY           SKY/WX    TMP DP  RH WIND       PRES   REMARKS
KINROSS        FOG      N/A N/A N/A E10       29.65F VSB 1/4
MACKINAC ISLAN CLOUDY    32  32 100 SE6       29.68R FOG     WCI  27
NEWBERRY       FOG       32  31  97 SE6       29.64S VSB 1/2 WCI  26
S. S. MARIE    FOG       33  32  96 E7        29.67F VSB 1/4 WCI  27
$$
MIZ004>006-011>014-085-211500-
CENTRAL UPPER MICHIGAN

CITY           SKY/WX    TMP DP  RH WIND       PRES   REMARKS
MANISTIQUE     FOG       32  32  99 E9        29.63F VSB<1/4 WCI  25
ESCANABA       FOG       34  34 100 NE6       29.60F VSB<1/4 WCI  29
SAWYER-GWINN   FOG       32  32 100 SE3       29.58F VSB 1/2
$$
MIZ001>003-009>011-084-211500-
WESTERN UPPER MICHIGAN

CITY           SKY/WX    TMP DP  RH WIND       PRES   REMARKS
IRON MOUNTAIN  FOG       32  31  96 CALM      29.56R VSB 1/4
HOUGHTON       FOG       34  32  92 E8        29.57S VSB 1/4 WCI  27
COPPER HARBOR    N/A     35  33  92 SW6       29.59S WCI  30
IRONWOOD       CLOUDY    34  33  96 E5        29.52F WCI  30
$$

ABBREVIATIONS USED IN REMARKS
   TC - TEMPERATURE IN CELSIUS
  WCI - WIND CHILL INDEX
   HX - HEAT INDEX
  VSB - VISIBILITY





USA.gov is the U.S. government's official web portal to all federal, state and local government web resources and services.